| time (UTC) | temp F | wind direction | speed MPH | gust MPH | rain 1hr in | rain 24hr in | rain mn in | humidity % | barometer mb |
| 20260904184805 | 55 | 241 | 1.0 | 3.0 | 0.00 | 0.00 | 0.00 | 85 | 1020.1 |
| 20260904184303 | 55 | 197 | 1.0 | 3.0 | 0.00 | 0.00 | 0.00 | 85 | 1020.1 |
| 20260904183804 | 55 | 240 | 3.0 | 5.0 | 0.00 | 0.00 | 0.00 | 85 | 1020.2 |
| 20260904183304 | 54 | 147 | 2.0 | 3.0 | 0.00 | 0.00 | 0.00 | 86 | 1020.1 |
| 20260904182804 | 54 | 200 | 2.0 | 3.0 | 0.00 | 0.00 | 0.00 | 86 | 1020.1 |
| 20260904182306 | 54 | 199 | 1.0 | 2.0 | 0.00 | 0.00 | 0.00 | 86 | 1020.1 |
| 20260904181804 | 54 | 177 | 1.0 | 3.0 | 0.00 | 0.00 | 0.00 | 86 | 1020.1 |
| 20260904181304 | 54 | 354 | 0.0 | 1.0 | 0.00 | 0.00 | 0.00 | 87 | 1020.0 |
| 20260904180804 | 54 | 336 | 2.0 | 3.0 | 0.00 | 0.00 | 0.00 | 87 | 1020.0 |
| 20260904180304 | 54 | 4 | 0.0 | 1.0 | 0.00 | 0.00 | 0.00 | 87 | 1020.0 |
| 20260904175804 | 54 | 37 | 0.0 | 1.0 | 0.00 | 0.00 | 0.00 | 87 | 1020.0 |
| 20260904175306 | 53 | 117 | 1.0 | 2.0 | 0.00 | 0.00 | 0.00 | 87 | 1020.1 |
| 20260904174804 | 53 | 17 | 1.0 | 2.0 | 0.00 | 0.00 | 0.00 | 87 | 1020.1 |
| 20260904173804 | 53 | 9 | 1.0 | 3.0 | 0.00 | 0.00 | 0.00 | 88 | 1020.2 |
| 20260904173304 | 53 | 224 | 1.0 | 3.0 | 0.00 | 0.00 | 0.00 | 88 | 1020.5 |
| 20260904172804 | 53 | 207 | 2.0 | 5.0 | 0.00 | 0.00 | 0.00 | 88 | 1020.5 |
| 20260904172305 | 53 | 56 | 0.0 | 2.0 | 0.00 | 0.00 | 0.00 | 88 | 1020.4 |
| 20260904171804 | 53 | 133 | 2.0 | 3.0 | 0.00 | 0.00 | 0.00 | 88 | 1020.4 |
| 20260904171304 | 52 | 225 | 2.0 | 3.0 | 0.00 | 0.00 | 0.00 | 88 | 1020.6 |
| 20260904170804 | 52 | 192 | 0.0 | 3.0 | 0.00 | 0.00 | 0.00 | 88 | 1020.5 |
| 20260904170304 | 52 | 219 | 0.0 | 1.0 | 0.00 | 0.00 | 0.00 | 88 | 1020.4 |
| 20260904165803 | 52 | 253 | 2.0 | 6.0 | 0.00 | 0.00 | 0.00 | 88 | 1020.4 |
| 20260904165305 | 52 | 232 | 0.0 | 2.0 | 0.00 | 0.00 | 0.00 | 88 | 1020.3 |
| 20260904164804 | 52 | 226 | 2.0 | 2.0 | 0.00 | 0.00 | 0.00 | 89 | 1020.1 |
| 20260904164303 | 52 | 199 | 0.0 | 0.0 | 0.00 | 0.00 | 0.00 | 89 | 1020.0 |
| 20260904163803 | 52 | 199 | 0.0 | 0.0 | 0.00 | 0.00 | 0.00 | 89 | 1019.9 |
| 20260904163304 | 51 | 199 | 0.0 | 0.0 | 0.00 | 0.00 | 0.00 | 89 | 1019.8 |
| 20260904162804 | 51 | 199 | 0.0 | 0.0 | 0.00 | 0.00 | 0.00 | 89 | 1019.9 |
| 20260904162306 | 51 | 199 | 0.0 | 0.0 | 0.00 | 0.00 | 0.00 | 89 | 1019.9 |
| 20260904161804 | 51 | 199 | 0.0 | 1.0 | 0.00 | 0.00 | 0.00 | 89 | 1019.9 |
| 20260904161304 | 51 | 210 | 0.0 | 0.0 | 0.00 | 0.00 | 0.00 | 89 | 1020.0 |
| 20260904160804 | 51 | 210 | 1.0 | 2.0 | 0.00 | 0.00 | 0.00 | 89 | 1019.9 |
| 20260904160304 | 51 | 206 | 1.0 | 2.0 | 0.00 | 0.00 | 0.00 | 89 | 1019.8 |
| 20260904155804 | 51 | 333 | 0.0 | 2.0 | 0.00 | 0.00 | 0.00 | 89 | 1019.9 |
| 20260904155306 | 51 | 108 | 0.0 | 2.0 | 0.00 | 0.00 | 0.00 | 89 | 1019.9 |
| 20260904154804 | 50 | 146 | 1.0 | 1.0 | 0.00 | 0.00 | 0.00 | 89 | 1019.9 |
| 20260904154304 | 50 | 147 | 1.0 | 5.0 | 0.00 | 0.00 | 0.00 | 89 | 1019.9 |
| 20260904153805 | 50 | 4 | 2.0 | 3.0 | 0.00 | 0.00 | 0.00 | 90 | 1019.8 |
| 20260904153304 | 50 | 25 | 0.0 | 1.0 | 0.00 | 0.00 | 0.00 | 90 | 1020.0 |
| 20260904152804 | 50 | 4 | 1.0 | 2.0 | 0.00 | 0.00 | 0.00 | 90 | 1020.0 |
| 20260904152306 | 50 | 355 | 2.0 | 5.0 | 0.00 | 0.00 | 0.00 | 90 | 1019.9 |
| 20260904151804 | 50 | 16 | 4.0 | 6.0 | 0.00 | 0.00 | 0.00 | 90 | 1020.0 |
| 20260904151304 | 50 | 350 | 2.0 | 5.0 | 0.00 | 0.00 | 0.00 | 90 | 1020.0 |
| 20260904150804 | 49 | 289 | 0.0 | 2.0 | 0.00 | 0.00 | 0.00 | 90 | 1020.0 |
| 20260904150304 | 49 | 333 | 1.0 | 2.0 | 0.00 | 0.00 | 0.00 | 90 | 1020.1 |
| 20260904145804 | 49 | 124 | 0.0 | 1.0 | 0.00 | 0.00 | 0.00 | 90 | 1020.2 |
| 20260904145306 | 50 | 140 | 1.0 | 3.0 | 0.00 | 0.00 | 0.00 | 90 | 1020.2 |
| 20260904144804 | 50 | 176 | 1.0 | 2.0 | 0.00 | 0.00 | 0.00 | 89 | 1020.4 |
| 20260904144304 | 49 | 160 | 0.0 | 0.0 | 0.00 | 0.00 | 0.00 | 89 | 1020.4 |
| 20260904143804 | 49 | 160 | 0.0 | 0.0 | 0.00 | 0.00 | 0.00 | 89 | 1020.4 |
| 20260904143304 | 49 | 160 | 0.0 | 0.0 | 0.00 | 0.00 | 0.00 | 89 | 1020.3 |
| 20260904142804 | 49 | 160 | 0.0 | 0.0 | 0.00 | 0.00 | 0.00 | 89 | 1020.4 |
| 20260904142306 | 49 | 160 | 0.0 | 0.0 | 0.00 | 0.00 | 0.00 | 89 | 1020.3 |
| 20260904141804 | 49 | 171 | 1.0 | 2.0 | 0.00 | 0.00 | 0.00 | 89 | 1020.2 |
| 20260904141304 | 49 | 102 | 1.0 | 2.0 | 0.00 | 0.00 | 0.00 | 89 | 1020.2 |
| 20260904140804 | 49 | 121 | 0.0 | 0.0 | 0.00 | 0.00 | 0.00 | 89 | 1020.2 |
| 20260904140304 | 49 | 121 | 1.0 | 2.0 | 0.00 | 0.00 | 0.00 | 89 | 1020.2 |
| 20260904135804 | 49 | 172 | 2.0 | 2.0 | 0.00 | 0.00 | 0.00 | 89 | 1020.2 |
| 20260904135306 | 49 | 208 | 0.0 | 0.0 | 0.00 | 0.00 | 0.00 | 89 | 1020.2 |
| 20260904134804 | 49 | 208 | 0.0 | 2.0 | 0.00 | 0.00 | 0.00 | 89 | 1020.1 |
| 20260904134304 | 49 | 227 | 2.0 | 3.0 | 0.00 | 0.00 | 0.00 | 89 | 1020.1 |
| 20260904133804 | 49 | 42 | 0.0 | 0.0 | 0.00 | 0.00 | 0.00 | 88 | 1019.9 |
| 20260904123305 | 48 | 52 | 0.0 | 0.0 | 0.00 | 0.00 | 0.00 | 89 | 1020.0 |
| 20260904112804 | 49 | 52 | 0.0 | 0.0 | 0.00 | 0.00 | 0.00 | 87 | 1020.4 |
| 20260904112306 | 49 | 52 | 0.0 | 0.0 | 0.00 | 0.00 | 0.00 | 87 | 1020.4 |
| 20260904111804 | 49 | 52 | 0.0 | 0.0 | 0.00 | 0.00 | 0.00 | 87 | 1020.3 |
| 20260904111304 | 49 | 46 | 0.0 | 1.0 | 0.00 | 0.00 | 0.00 | 87 | 1020.3 |
| 20260904110804 | 49 | 34 | 0.0 | 0.0 | 0.00 | 0.00 | 0.00 | 87 | 1020.2 |
| 20260904110304 | 50 | 34 | 0.0 | 0.0 | 0.00 | 0.00 | 0.00 | 86 | 1020.2 |
| 20260904105804 | 49 | 102 | 0.0 | 1.0 | 0.00 | 0.00 | 0.00 | 86 | 1020.2 |
| 20260904105306 | 49 | 120 | 0.0 | 0.0 | 0.00 | 0.00 | 0.00 | 86 | 1020.3 |
| 20260904104804 | 49 | 120 | 0.0 | 0.0 | 0.00 | 0.00 | 0.00 | 86 | 1020.4 |
| 20260904104304 | 50 | 120 | 0.0 | 0.0 | 0.00 | 0.00 | 0.00 | 86 | 1020.5 |
| 20260904103804 | 49 | 120 | 0.0 | 0.0 | 0.00 | 0.00 | 0.00 | 86 | 1020.5 |
| 20260904103304 | 49 | 120 | 0.0 | 0.0 | 0.00 | 0.00 | 0.00 | 86 | 1020.6 |
| 20260904102804 | 50 | 120 | 0.0 | 0.0 | 0.00 | 0.00 | 0.00 | 86 | 1020.6 |
| 20260904102306 | 49 | 120 | 0.0 | 1.0 | 0.00 | 0.00 | 0.00 | 86 | 1020.6 |
| 20260904101804 | 50 | 162 | 0.0 | 1.0 | 0.00 | 0.00 | 0.00 | 85 | 1020.6 |
| 20260904101304 | 50 | 162 | 0.0 | 0.0 | 0.00 | 0.00 | 0.00 | 85 | 1020.7 |
| 20260904100805 | 50 | 162 | 1.0 | 2.0 | 0.00 | 0.00 | 0.00 | 85 | 1020.6 |
| 20260904100304 | 50 | 125 | 1.0 | 2.0 | 0.00 | 0.00 | 0.00 | 85 | 1020.6 |
| 20260904095804 | 50 | 150 | 1.0 | 2.0 | 0.00 | 0.00 | 0.00 | 85 | 1020.6 |
| 20260904095306 | 50 | 181 | 0.0 | 0.0 | 0.00 | 0.00 | 0.00 | 85 | 1020.4 |
| 20260904094804 | 50 | 181 | 0.0 | 0.0 | 0.00 | 0.00 | 0.00 | 84 | 1020.3 |
| 20260904094304 | 50 | 181 | 0.0 | 0.0 | 0.00 | 0.00 | 0.00 | 84 | 1020.1 |
| 20260904093804 | 50 | 181 | 0.0 | 0.0 | 0.00 | 0.00 | 0.00 | 84 | 1020.1 |
| 20260904093305 | 50 | 181 | 0.0 | 0.0 | 0.00 | 0.00 | 0.00 | 84 | 1020.0 |
| 20260904092803 | 50 | 181 | 0.0 | 0.0 | 0.00 | 0.00 | 0.00 | 83 | 1019.8 |
| 20260904092306 | 50 | 181 | 0.0 | 0.0 | 0.00 | 0.00 | 0.00 | 83 | 1019.9 |
| 20260904091804 | 50 | 181 | 0.0 | 0.0 | 0.00 | 0.00 | 0.00 | 83 | 1019.8 |
| 20260904081304 | 50 | 133 | 0.0 | 2.0 | 0.00 | 0.00 | 0.00 | 84 | 1019.9 |
| 20260904080804 | 50 | 138 | 0.0 | 0.0 | 0.00 | 0.00 | 0.00 | 84 | 1019.9 |
| 20260904080305 | 51 | 138 | 0.0 | 0.0 | 0.00 | 0.00 | 0.00 | 84 | 1019.9 |
| 20260904075804 | 51 | 138 | 0.0 | 0.0 | 0.00 | 0.00 | 0.00 | 84 | 1019.9 |
| 20260904075306 | 51 | 138 | 0.0 | 0.0 | 0.00 | 0.00 | 0.00 | 84 | 1019.8 |
| 20260904074805 | 51 | 138 | 0.0 | 0.0 | 0.00 | 0.00 | 0.00 | 83 | 1020.0 |
| 20260904074305 | 51 | 138 | 0.0 | 0.0 | 0.00 | 0.00 | 0.00 | 83 | 1020.1 |
| 20260904073805 | 51 | 138 | 0.0 | 2.0 | 0.00 | 0.00 | 0.00 | 83 | 1020.1 |
| 20260904073304 | 52 | 135 | 1.0 | 3.0 | 0.00 | 0.00 | 0.00 | 83 | 1020.1 |
| 20260904072804 | 52 | 192 | 0.0 | 1.0 | 0.00 | 0.00 | 0.00 | 82 | 1020.3 |
| 20260904072306 | 52 | 192 | 0.0 | 0.0 | 0.00 | 0.00 | 0.00 | 82 | 1020.3 |
| 20260904071804 | 52 | 192 | 0.0 | 0.0 | 0.00 | 0.00 | 0.00 | 82 | 1020.3 |
| 20260904071304 | 52 | 192 | 0.0 | 0.0 | 0.00 | 0.00 | 0.00 | 82 | 1020.3 |
| 20260904070804 | 52 | 192 | 0.0 | 0.0 | 0.00 | 0.00 | 0.00 | 82 | 1020.2 |
| 20260904070303 | 52 | 192 | 0.0 | 1.0 | 0.00 | 0.00 | 0.00 | 81 | 1020.3 |
| 20260904065804 | 52 | 177 | 1.0 | 1.0 | 0.00 | 0.00 | 0.00 | 81 | 1020.1 |
| 20260904065306 | 52 | 14 | 0.0 | 0.0 | 0.00 | 0.00 | 0.00 | 81 | 1020.0 |
| 20260904064804 | 53 | 14 | 0.0 | 0.0 | 0.00 | 0.00 | 0.00 | 80 | 1020.0 |
| 20260904064304 | 53 | 14 | 0.0 | 0.0 | 0.00 | 0.00 | 0.00 | 80 | 1020.1 |
| 20260904063804 | 53 | 14 | 0.0 | 0.0 | 0.00 | 0.00 | 0.00 | 79 | 1020.2 |
| 20260904063304 | 53 | 14 | 1.0 | 2.0 | 0.00 | 0.00 | 0.00 | 79 | 1020.2 |
| 20260904062803 | 54 | 14 | 0.0 | 0.0 | 0.00 | 0.00 | 0.00 | 79 | 1020.1 |
| 20260904062306 | 54 | 14 | 0.0 | 0.0 | 0.00 | 0.00 | 0.00 | 78 | 1020.1 |
| 20260904061804 | 54 | 14 | 0.0 | 0.0 | 0.00 | 0.00 | 0.00 | 78 | 1020.1 |
| 20260904061304 | 54 | 14 | 0.0 | 0.0 | 0.00 | 0.00 | 0.00 | 77 | 1020.0 |
| 20260904060804 | 54 | 14 | 0.0 | 0.0 | 0.00 | 0.00 | 0.00 | 76 | 1020.1 |
| 20260904060304 | 55 | 14 | 0.0 | 0.0 | 0.00 | 0.00 | 0.00 | 76 | 1020.0 |
| 20260904050304 | 58 | 69 | 0.0 | 0.0 | 0.00 | 0.00 | 0.00 | 69 | 1019.7 |
| 20260904035804 | 60 | 118 | 0.0 | 5.0 | 0.00 | 0.00 | 0.00 | 61 | 1019.6 |
| 20260904024804 | 62 | 318 | 0.0 | 0.0 | 0.00 | 0.00 | 0.00 | 57 | 1019.9 |
| 20260904024305 | 62 | 326 | 1.0 | 2.0 | 0.00 | 0.00 | 0.00 | 57 | 1020.0 |
| 20260904023805 | 62 | 310 | 0.0 | 2.0 | 0.00 | 0.00 | 0.00 | 58 | 1020.0 |
| 20260904023305 | 61 | 350 | 0.0 | 2.0 | 0.00 | 0.00 | 0.00 | 58 | 1019.9 |
| 20260904022805 | 61 | 145 | 0.0 | 0.0 | 0.00 | 0.00 | 0.00 | 57 | 1019.8 |
| 20260904022306 | 61 | 145 | 0.0 | 0.0 | 0.00 | 0.00 | 0.00 | 58 | 1019.8 |
| 20260904021804 | 61 | 145 | 0.0 | 0.0 | 0.00 | 0.00 | 0.00 | 58 | 1019.8 |
| 20260904021304 | 61 | 145 | 0.0 | 1.0 | 0.00 | 0.00 | 0.00 | 57 | 1019.7 |
| 20260904020804 | 61 | 174 | 1.0 | 2.0 | 0.00 | 0.00 | 0.00 | 57 | 1019.7 |
| 20260904020304 | 61 | 2 | 0.0 | 1.0 | 0.00 | 0.00 | 0.00 | 57 | 1019.5 |
| 20260904015805 | 61 | 166 | 1.0 | 2.0 | 0.00 | 0.00 | 0.00 | 56 | 1019.4 |
| 20260904015306 | 62 | 173 | 2.0 | 5.0 | 0.00 | 0.00 | 0.00 | 56 | 1019.7 |
| 20260904014804 | 62 | 157 | 2.0 | 3.0 | 0.00 | 0.00 | 0.00 | 55 | 1019.5 |
| 20260904014304 | 62 | 139 | 1.0 | 3.0 | 0.00 | 0.00 | 0.00 | 55 | 1019.7 |
| 20260904013804 | 62 | 161 | 0.0 | 2.0 | 0.00 | 0.00 | 0.00 | 55 | 1019.6 |
| 20260904013304 | 62 | 169 | 1.0 | 5.0 | 0.00 | 0.00 | 0.00 | 55 | 1019.6 |
| 20260904012804 | 62 | 228 | 2.0 | 5.0 | 0.00 | 0.00 | 0.00 | 55 | 1019.6 |
| 20260904012306 | 62 | 237 | 1.0 | 5.0 | 0.00 | 0.00 | 0.00 | 55 | 1019.6 |
| 20260904011804 | 62 | 210 | 3.0 | 6.0 | 0.00 | 0.00 | 0.00 | 55 | 1019.5 |
| 20260904011305 | 62 | 272 | 1.0 | 6.0 | 0.00 | 0.00 | 0.00 | 54 | 1019.4 |
| 20260904010804 | 62 | 225 | 5.0 | 8.0 | 0.00 | 0.00 | 0.00 | 54 | 1019.4 |
| 20260904010304 | 62 | 226 | 0.0 | 0.0 | 0.00 | 0.00 | 0.00 | 54 | 1019.2 |
| 20260904005804 | 63 | 226 | 0.0 | 1.0 | 0.00 | 0.00 | 0.00 | 53 | 1019.2 |
| 20260904005306 | 63 | 295 | 1.0 | 2.0 | 0.00 | 0.00 | 0.00 | 53 | 1019.2 |
| 20260904004305 | 63 | 353 | 2.0 | 3.0 | 0.00 | 0.00 | 0.00 | 53 | 1019.2 |
| 20260904003804 | 63 | 337 | 2.0 | 3.0 | 0.00 | 0.00 | 0.00 | 53 | 1019.2 |
| 20260904003304 | 63 | 342 | 1.0 | 2.0 | 0.00 | 0.00 | 0.00 | 54 | 1019.3 |
| 20260904002805 | 63 | 329 | 0.0 | 0.0 | 0.00 | 0.00 | 0.00 | 54 | 1019.6 |
| 20260904002306 | 63 | 329 | 0.0 | 2.0 | 0.00 | 0.00 | 0.00 | 54 | 1019.7 |
| 20260904001804 | 63 | 285 | 0.0 | 3.0 | 0.00 | 0.00 | 0.00 | 54 | 1019.8 |
| 20260904001305 | 63 | 285 | 1.0 | 3.0 | 0.00 | 0.00 | 0.00 | 54 | 1019.7 |
| 20260904000805 | 63 | 291 | 1.0 | 2.0 | 0.00 | 0.00 | 0.00 | 54 | 1019.7 |
| 20260904000305 | 63 | 258 | 0.0 | 1.0 | 0.00 | 0.00 | 0.00 | 54 | 1019.7 |
| 20260903235804 | 63 | 245 | 2.0 | 5.0 | 0.00 | 0.00 | 0.00 | 55 | 1019.6 |
| 20260903235305 | 63 | 274 | 0.0 | 3.0 | 0.00 | 0.00 | 0.00 | 55 | 1019.7 |
| 20260903234804 | 63 | 313 | 1.0 | 5.0 | 0.00 | 0.00 | 0.00 | 55 | 1019.7 |
| 20260903234304 | 63 | 302 | 0.0 | 2.0 | 0.00 | 0.00 | 0.00 | 56 | 1019.6 |
| 20260903233804 | 63 | 8 | 1.0 | 3.0 | 0.00 | 0.00 | 0.00 | 55 | 1019.4 |
| 20260903233304 | 63 | 319 | 0.0 | 1.0 | 0.00 | 0.00 | 0.00 | 55 | 1019.3 |
| 20260903232804 | 63 | 274 | 0.0 | 1.0 | 0.00 | 0.00 | 0.00 | 55 | 1019.2 |
| 20260903232306 | 63 | 323 | 2.0 | 3.0 | 0.00 | 0.00 | 0.00 | 56 | 1019.3 |
| 20260903231804 | 63 | 227 | 1.0 | 3.0 | 0.00 | 0.00 | 0.00 | 55 | 1019.4 |
| 20260903231304 | 63 | 273 | 1.0 | 6.0 | 0.00 | 0.00 | 0.00 | 55 | 1019.4 |
| 20260903230804 | 63 | 347 | 4.0 | 7.0 | 0.00 | 0.00 | 0.00 | 55 | 1019.2 |
| 20260903230304 | 62 | 1 | 0.0 | 1.0 | 0.00 | 0.00 | 0.00 | 55 | 1019.1 |
| 20260903225804 | 62 | 48 | 2.0 | 5.0 | 0.00 | 0.00 | 0.00 | 55 | 1019.1 |
| 20260903225306 | 62 | 13 | 2.0 | 5.0 | 0.00 | 0.00 | 0.00 | 56 | 1019.0 |
| 20260903224803 | 62 | 334 | 2.0 | 3.0 | 0.00 | 0.00 | 0.00 | 56 | 1019.0 |
| 20260903214304 | 61 | 13 | 2.0 | 5.0 | 0.00 | 0.00 | 0.00 | 61 | 1019.7 |
| 20260903213304 | 61 | 280 | 1.0 | 6.0 | 0.00 | 0.00 | 0.00 | 62 | 1019.5 |
| 20260903212804 | 61 | 4 | 2.0 | 8.0 | 0.00 | 0.00 | 0.00 | 62 | 1019.5 |
| 20260903212306 | 61 | 12 | 4.0 | 7.0 | 0.00 | 0.00 | 0.00 | 63 | 1019.5 |
| 20260903211804 | 60 | 320 | 2.0 | 5.0 | 0.00 | 0.00 | 0.00 | 63 | 1019.4 |
| 20260903211304 | 60 | 292 | 1.0 | 5.0 | 0.00 | 0.00 | 0.00 | 63 | 1019.4 |
| 20260903210804 | 60 | 355 | 2.0 | 5.0 | 0.00 | 0.00 | 0.00 | 63 | 1019.4 |
| 20260903210305 | 60 | 348 | 1.0 | 5.0 | 0.00 | 0.00 | 0.00 | 63 | 1019.4 |
| 20260903205804 | 59 | 353 | 3.0 | 7.0 | 0.00 | 0.00 | 0.00 | 63 | 1019.3 |
| 20260903205306 | 60 | 8 | 2.0 | 7.0 | 0.00 | 0.00 | 0.00 | 63 | 1019.3 |
| 20260903204804 | 59 | 355 | 4.0 | 6.0 | 0.00 | 0.00 | 0.00 | 63 | 1019.4 |
| 20260903204304 | 59 | 358 | 0.0 | 5.0 | 0.00 | 0.00 | 0.00 | 64 | 1019.5 |
| 20260903203804 | 59 | 332 | 1.0 | 3.0 | 0.00 | 0.00 | 0.00 | 64 | 1019.6 |
| 20260903203304 | 59 | 54 | 2.0 | 7.0 | 0.00 | 0.00 | 0.00 | 64 | 1019.7 |
| 20260903202804 | 59 | 354 | 5.0 | 7.0 | 0.00 | 0.00 | 0.00 | 64 | 1019.6 |
| 20260903202306 | 58 | 328 | 1.0 | 2.0 | 0.00 | 0.00 | 0.00 | 65 | 1019.7 |
| 20260903201805 | 58 | 210 | 1.0 | 5.0 | 0.00 | 0.00 | 0.00 | 66 | 1019.7 |
| 20260903201304 | 58 | 336 | 5.0 | 6.0 | 0.00 | 0.00 | 0.00 | 66 | 1019.7 |
| 20260903200804 | 58 | 0 | 5.0 | 7.0 | 0.00 | 0.00 | 0.00 | 66 | 1019.7 |
| 20260903200304 | 58 | 337 | 2.0 | 5.0 | 0.00 | 0.00 | 0.00 | 68 | 1019.7 |
| 20260903195805 | 57 | 335 | 2.0 | 6.0 | 0.00 | 0.00 | 0.00 | 69 | 1019.7 |
| 20260903195306 | 57 | 333 | 2.0 | 5.0 | 0.00 | 0.00 | 0.00 | 69 | 1019.6 |
| 20260903194804 | 57 | 318 | 1.0 | 3.0 | 0.00 | 0.00 | 0.00 | 70 | 1019.5 |
| 20260903194304 | 57 | 302 | 1.0 | 3.0 | 0.00 | 0.00 | 0.00 | 71 | 1019.4 |
| 20260903193804 | 56 | 305 | 0.0 | 0.0 | 0.00 | 0.00 | 0.00 | 71 | 1019.4 |